SCX8681 KMSP-KOMA

Flight info

Callsign SCX8681
Flight time 0h 56m
Altitude 36000
Route ORSKY3 ORSKY DABOY LANTK2
Aircraft B738/M-SDE2E3FGHIRWXY/LB1

Departure

Time 2026-05-06 18:11
Airport Minneapolis–Saint Paul International Airport / Wold–Chamberlain Field (KMSP)

Arrival

Time 2026-05-06 19:07
Airport Eppley Airfield (KOMA)
Time Latitude Longitude Altitude Speed Heading
2026-05-06 17:43 44.87497 -93.22845 821 ft 0 kts 134°
2026-05-06 17:47 44.87497 -93.22846 821 ft 0 kts 134°
2026-05-06 17:56 44.87498 -93.22846 824 ft 0 kts 134°
2026-05-06 17:57 44.87498 -93.22847 824 ft 1 kts 134°
2026-05-06 17:57 44.87516 -93.22871 823 ft 4 kts 135°
2026-05-06 17:57 44.87534 -93.22898 823 ft 4 kts 128°
2026-05-06 17:58 44.87548 -93.22930 821 ft 4 kts 106°
2026-05-06 17:58 44.87549 -93.22963 821 ft 4 kts 58°
2026-05-06 17:58 44.87545 -93.22972 823 ft 0 kts 45°
2026-05-06 18:01 44.87547 -93.22970 824 ft 2 kts 45°
2026-05-06 18:02 44.87563 -93.22946 822 ft 5 kts 49°
2026-05-06 18:02 44.87601 -93.22893 824 ft 10 kts 46°
2026-05-06 18:02 44.87648 -93.22824 822 ft 10 kts 46°
2026-05-06 18:02 44.87694 -93.22760 822 ft 9 kts 44°
2026-05-06 18:03 44.87740 -93.22697 824 ft 9 kts 44°
2026-05-06 18:03 44.87784 -93.22636 823 ft 9 kts 44°
2026-05-06 18:03 44.87827 -93.22577 824 ft 9 kts 43°
2026-05-06 18:03 44.87867 -93.22517 822 ft 8 kts 47°
2026-05-06 18:04 44.87906 -93.22458 821 ft 8 kts 47°
2026-05-06 18:04 44.87949 -93.22411 824 ft 8 kts 36°
2026-05-06 18:04 44.87987 -93.22359 825 ft 8 kts 45°
2026-05-06 18:04 44.88022 -93.22305 825 ft 7 kts 47°
2026-05-06 18:05 44.88055 -93.22252 822 ft 7 kts 52°
2026-05-06 18:05 44.88084 -93.22198 825 ft 7 kts 54°
2026-05-06 18:05 44.88093 -93.22136 825 ft 7 kts 105°
2026-05-06 18:05 44.88070 -93.22078 825 ft 7 kts 121°
2026-05-06 18:06 44.88048 -93.22021 824 ft 7 kts 118°
2026-05-06 18:06 44.88027 -93.21966 824 ft 7 kts 122°
2026-05-06 18:06 44.87992 -93.21891 824 ft 11 kts 124°
2026-05-06 18:06 44.87952 -93.21805 821 ft 10 kts 122°
2026-05-06 18:07 44.87915 -93.21719 820 ft 10 kts 121°
2026-05-06 18:07 44.87877 -93.21631 822 ft 12 kts 121°
2026-05-06 18:07 44.87830 -93.21526 820 ft 13 kts 121°
2026-05-06 18:07 44.87788 -93.21420 824 ft 12 kts 117°
2026-05-06 18:08 44.87747 -93.21317 824 ft 12 kts 124°
2026-05-06 18:08 44.87702 -93.21221 824 ft 12 kts 125°
2026-05-06 18:08 44.87657 -93.21128 824 ft 11 kts 120°
2026-05-06 18:08 44.87619 -93.21035 824 ft 11 kts 121°
2026-05-06 18:09 44.87579 -93.20945 823 ft 11 kts 121°
2026-05-06 18:09 44.87539 -93.20852 824 ft 13 kts 121°
2026-05-06 18:09 44.87480 -93.20733 824 ft 16 kts 135°
2026-05-06 18:09 44.87395 -93.20638 824 ft 15 kts 138°
2026-05-06 18:10 44.87332 -93.20521 824 ft 15 kts 124°
2026-05-06 18:10 44.87294 -93.20395 824 ft 14 kts 78°
2026-05-06 18:10 44.87364 -93.20306 824 ft 13 kts 34°
2026-05-06 18:10 44.87439 -93.20319 824 ft 13 kts 302°
2026-05-06 18:11 44.87514 -93.20494 824 ft 45 kts 301°
2026-05-06 18:11 44.87799 -93.21160 823 ft 111 kts 301°
2026-05-06 18:11 44.88297 -93.22278 1026 ft 145 kts 303°
2026-05-06 18:11 44.88880 -93.23494 1657 ft 155 kts 304°
2026-05-06 18:12 44.89315 -93.24932 2303 ft 166 kts 278°
2026-05-06 18:12 44.89311 -93.26563 3074 ft 168 kts 270°
2026-05-06 18:12 44.89262 -93.28247 3853 ft 174 kts 269°
2026-05-06 18:12 44.89088 -93.29966 4561 ft 182 kts 251°
2026-05-06 18:13 44.88305 -93.31450 5072 ft 201 kts 221°
2026-05-06 18:13 44.87007 -93.32410 5514 ft 217 kts 207°
2026-05-06 18:13 44.85574 -93.33208 6065 ft 229 kts 205°
2026-05-06 18:13 44.84020 -93.34059 6247 ft 258 kts 205°
2026-05-06 18:14 44.82261 -93.34955 6741 ft 272 kts 200°
2026-05-06 18:14 44.80438 -93.35701 7495 ft 274 kts 200°
2026-05-06 18:14 44.78586 -93.36465 8206 ft 278 kts 200°
2026-05-06 18:14 44.76725 -93.37228 8902 ft 282 kts 200°
2026-05-06 18:15 44.74827 -93.38005 9652 ft 285 kts 200°
2026-05-06 18:15 44.72928 -93.38783 10289 ft 292 kts 200°
2026-05-06 18:15 44.70899 -93.39620 10473 ft 314 kts 200°
2026-05-06 18:15 44.68737 -93.40523 10657 ft 334 kts 200°
2026-05-06 18:16 44.66441 -93.41493 10812 ft 353 kts 200°
2026-05-06 18:16 44.64030 -93.42520 11022 ft 368 kts 200°
2026-05-06 18:16 44.61549 -93.43580 11506 ft 374 kts 200°
2026-05-06 18:16 44.59077 -93.44634 12123 ft 377 kts 200°
2026-05-06 18:17 44.56554 -93.45704 12757 ft 380 kts 200°
2026-05-06 18:17 44.54869 -93.46413 13176 ft 381 kts 200°
2026-05-06 18:17 44.51441 -93.47841 14039 ft 385 kts 200°
2026-05-06 18:17 44.48886 -93.48919 14589 ft 387 kts 203°
2026-05-06 18:18 44.46473 -93.50560 15142 ft 384 kts 218°
2026-05-06 18:18 44.44389 -93.52887 15749 ft 383 kts 224°
2026-05-06 18:18 44.42347 -93.55308 16347 ft 386 kts 224°
2026-05-06 18:18 44.40270 -93.57730 16913 ft 389 kts 224°
2026-05-06 18:19 44.38188 -93.60112 17457 ft 393 kts 223°
2026-05-06 18:19 44.36045 -93.62527 17997 ft 396 kts 223°
2026-05-06 18:19 44.33890 -93.64934 18595 ft 397 kts 223°
2026-05-06 18:19 44.31711 -93.67357 19070 ft 401 kts 223°
2026-05-06 18:20 44.29518 -93.69792 19516 ft 404 kts 223°
2026-05-06 18:20 44.27330 -93.72218 19955 ft 407 kts 223°
2026-05-06 18:20 44.25101 -93.74688 20402 ft 410 kts 223°
2026-05-06 18:20 44.22854 -93.77176 20835 ft 413 kts 223°
2026-05-06 18:21 44.20589 -93.79669 21265 ft 416 kts 222°
2026-05-06 18:21 44.18186 -93.81919 21569 ft 425 kts 216°
2026-05-06 18:21 44.15595 -93.84007 21822 ft 432 kts 214°
2026-05-06 18:21 44.12962 -93.86048 22398 ft 431 kts 214°
2026-05-06 18:22 44.11225 -93.87388 22718 ft 431 kts 214°
2026-05-06 18:22 44.07734 -93.90101 23184 ft 436 kts 214°
2026-05-06 18:22 44.05076 -93.92191 23528 ft 439 kts 214°
2026-05-06 18:22 44.03275 -93.93614 23765 ft 441 kts 214°
2026-05-06 18:23 44.00635 -93.95708 24089 ft 442 kts 214°
2026-05-06 18:23 43.97951 -93.97841 24447 ft 443 kts 215°
2026-05-06 18:23 43.95268 -93.99973 24781 ft 443 kts 215°
2026-05-06 18:23 43.92593 -94.02095 25222 ft 441 kts 215°
2026-05-06 18:24 43.89924 -94.04212 25543 ft 442 kts 215°
2026-05-06 18:24 43.87273 -94.06313 25789 ft 445 kts 215°
2026-05-06 18:24 43.84576 -94.08448 26047 ft 447 kts 215°
2026-05-06 18:24 43.81863 -94.10593 26332 ft 448 kts 215°
2026-05-06 18:25 43.79176 -94.12714 26623 ft 449 kts 215°
2026-05-06 18:25 43.76453 -94.14861 26883 ft 450 kts 215°
2026-05-06 18:25 43.73730 -94.17006 27187 ft 449 kts 215°
2026-05-06 18:25 43.71004 -94.19151 27519 ft 449 kts 215°
2026-05-06 18:26 43.68311 -94.21267 27704 ft 451 kts 215°
2026-05-06 18:26 43.65564 -94.23427 27794 ft 456 kts 215°
2026-05-06 18:26 43.62792 -94.25599 28036 ft 456 kts 215°
2026-05-06 18:26 43.60030 -94.27756 28438 ft 454 kts 215°
2026-05-06 18:27 43.57286 -94.29896 28913 ft 450 kts 215°
2026-05-06 18:27 43.54591 -94.31998 29290 ft 448 kts 215°
2026-05-06 18:27 43.51902 -94.34091 29993 ft 438 kts 216°
2026-05-06 18:27 43.49267 -94.36142 30466 ft 434 kts 216°
2026-05-06 18:28 43.46621 -94.38205 30660 ft 436 kts 216°
2026-05-06 18:28 43.44002 -94.40248 30777 ft 439 kts 216°
2026-05-06 18:28 43.41338 -94.42321 30991 ft 439 kts 216°
2026-05-06 18:28 43.38676 -94.44387 31285 ft 438 kts 216°
2026-05-06 18:29 43.36022 -94.46443 31589 ft 436 kts 216°
2026-05-06 18:29 43.33362 -94.48447 31826 ft 438 kts 212°
2026-05-06 18:29 43.30505 -94.49907 32386 ft 439 kts 203°
2026-05-06 18:29 43.27507 -94.50840 32669 ft 446 kts 197°
2026-05-06 18:30 43.24370 -94.51225 32758 ft 459 kts 188°
2026-05-06 18:30 43.21197 -94.51142 32903 ft 463 kts 186°
2026-05-06 18:30 43.17971 -94.50983 33159 ft 463 kts 186°
2026-05-06 18:30 43.14759 -94.50807 33462 ft 462 kts 186°
2026-05-06 18:31 43.11551 -94.50636 33769 ft 459 kts 186°
2026-05-06 18:31 43.08369 -94.50482 34101 ft 456 kts 186°
2026-05-06 18:31 43.05197 -94.50344 34274 ft 457 kts 186°
2026-05-06 18:31 43.02005 -94.50218 34413 ft 458 kts 186°
2026-05-06 18:32 42.98815 -94.50097 34605 ft 458 kts 186°
2026-05-06 18:32 42.95629 -94.49977 34827 ft 458 kts 186°
2026-05-06 18:32 42.92444 -94.49858 35010 ft 456 kts 187°
2026-05-06 18:32 42.89325 -94.49737 35394 ft 451 kts 187°
2026-05-06 18:33 42.86185 -94.49618 35599 ft 452 kts 187°
2026-05-06 18:33 42.83031 -94.49502 35682 ft 455 kts 187°
2026-05-06 18:33 42.79856 -94.49386 35812 ft 456 kts 187°
2026-05-06 18:33 42.76683 -94.49267 36017 ft 455 kts 187°
2026-05-06 18:34 42.73511 -94.49147 36145 ft 456 kts 187°
2026-05-06 18:34 42.70332 -94.49029 36141 ft 457 kts 187°
2026-05-06 18:34 42.64016 -94.48789 36141 ft 455 kts 187°
2026-05-06 18:35 42.57700 -94.48549 36140 ft 452 kts 187°
2026-05-06 18:35 42.51403 -94.48312 36115 ft 451 kts 187°
2026-05-06 18:36 42.45169 -94.48080 36118 ft 450 kts 187°
2026-05-06 18:36 42.42023 -94.47967 35863 ft 455 kts 187°
2026-05-06 18:36 42.38848 -94.47851 35639 ft 454 kts 187°
2026-05-06 18:37 42.35694 -94.47731 35405 ft 451 kts 187°
2026-05-06 18:37 42.32558 -94.47612 35177 ft 451 kts 187°
2026-05-06 18:37 42.29462 -94.47495 34921 ft 449 kts 188°
2026-05-06 18:37 42.26330 -94.47378 34694 ft 448 kts 188°
2026-05-06 18:38 42.23210 -94.47262 34469 ft 447 kts 188°
2026-05-06 18:38 42.20097 -94.47147 34241 ft 446 kts 188°
2026-05-06 18:38 42.16991 -94.47032 33984 ft 445 kts 188°
2026-05-06 18:38 42.13938 -94.46919 33732 ft 444 kts 188°
2026-05-06 18:39 42.10848 -94.46806 33429 ft 443 kts 189°
2026-05-06 18:39 42.07763 -94.46692 33162 ft 442 kts 189°
2026-05-06 18:39 42.04686 -94.46578 32469 ft 442 kts 189°
2026-05-06 18:40 41.98548 -94.46354 31031 ft 440 kts 190°
2026-05-06 18:40 41.95522 -94.46242 30313 ft 439 kts 190°
2026-05-06 18:40 41.92514 -94.46390 29390 ft 421 kts 202°
2026-05-06 18:40 41.89825 -94.47629 28616 ft 396 kts 216°
2026-05-06 18:41 41.87528 -94.49514 28252 ft 374 kts 224°
2026-05-06 18:41 41.85651 -94.51779 27855 ft 368 kts 233°
2026-05-06 18:41 41.83988 -94.54548 26863 ft 391 kts 238°
2026-05-06 18:41 41.82372 -94.57489 25985 ft 389 kts 238°
2026-05-06 18:42 41.80798 -94.60398 25290 ft 383 kts 239°
2026-05-06 18:42 41.79237 -94.63271 24621 ft 377 kts 239°
2026-05-06 18:42 41.77692 -94.66093 23961 ft 373 kts 238°
2026-05-06 18:42 41.76177 -94.68837 23233 ft 369 kts 238°
2026-05-06 18:43 41.74650 -94.71588 22535 ft 364 kts 238°
2026-05-06 18:43 41.73137 -94.74304 21876 ft 361 kts 238°
2026-05-06 18:43 41.71639 -94.76986 21225 ft 357 kts 238°
2026-05-06 18:43 41.70167 -94.79618 20587 ft 358 kts 238°
2026-05-06 18:44 41.68646 -94.82346 19946 ft 374 kts 238°
2026-05-06 18:44 41.67060 -94.85185 19228 ft 380 kts 238°
2026-05-06 18:44 41.65476 -94.88004 18565 ft 376 kts 238°
2026-05-06 18:44 41.63925 -94.90757 17844 ft 373 kts 238°
2026-05-06 18:45 41.62367 -94.93524 17109 ft 369 kts 238°
2026-05-06 18:45 41.60828 -94.96256 16401 ft 366 kts 238°
2026-05-06 18:45 41.59300 -94.98969 15715 ft 364 kts 238°
2026-05-06 18:45 41.57781 -95.01667 15048 ft 362 kts 238°
2026-05-06 18:46 41.56286 -95.04318 14323 ft 362 kts 238°
2026-05-06 18:46 41.54762 -95.07020 13592 ft 362 kts 237°
2026-05-06 18:46 41.53246 -95.09705 12875 ft 360 kts 237°
2026-05-06 18:46 41.51757 -95.12335 12190 ft 359 kts 236°
2026-05-06 18:47 41.50343 -95.15079 11516 ft 353 kts 246°
2026-05-06 18:47 41.49610 -95.18126 11253 ft 337 kts 257°
2026-05-06 18:47 41.48992 -95.21073 11131 ft 323 kts 256°
2026-05-06 18:47 41.48393 -95.23892 11009 ft 309 kts 257°
2026-05-06 18:48 41.47814 -95.26629 10743 ft 303 kts 256°
2026-05-06 18:48 41.47248 -95.29250 10628 ft 291 kts 256°
2026-05-06 18:48 41.46699 -95.31798 10510 ft 281 kts 256°
2026-05-06 18:48 41.46162 -95.34275 10356 ft 273 kts 256°
2026-05-06 18:49 41.45636 -95.36675 10196 ft 266 kts 256°
2026-05-06 18:49 41.45111 -95.39025 9857 ft 265 kts 256°
2026-05-06 18:49 41.44593 -95.41335 9634 ft 260 kts 256°
2026-05-06 18:49 41.44093 -95.43636 9413 ft 255 kts 255°
2026-05-06 18:50 41.43451 -95.45826 9152 ft 255 kts 239°
2026-05-06 18:50 41.42155 -95.47437 8929 ft 258 kts 216°
2026-05-06 18:50 41.40594 -95.48614 8658 ft 258 kts 212°
2026-05-06 18:50 41.39011 -95.49743 8380 ft 257 kts 212°
2026-05-06 18:51 41.37434 -95.50853 8106 ft 256 kts 212°
2026-05-06 18:51 41.35880 -95.51940 7841 ft 255 kts 212°
2026-05-06 18:51 41.34359 -95.53006 7557 ft 256 kts 212°
2026-05-06 18:51 41.32785 -95.54108 7284 ft 256 kts 212°
2026-05-06 18:52 41.31209 -95.55209 7013 ft 255 kts 212°
2026-05-06 18:52 41.29638 -95.56311 6749 ft 254 kts 211°
2026-05-06 18:52 41.28090 -95.57397 6497 ft 254 kts 212°
2026-05-06 18:52 41.26524 -95.58490 6226 ft 254 kts 212°
2026-05-06 18:53 41.24972 -95.59622 5953 ft 253 kts 214°
2026-05-06 18:53 41.23454 -95.60801 5707 ft 251 kts 215°
2026-05-06 18:53 41.21974 -95.61958 5463 ft 249 kts 214°
2026-05-06 18:53 41.20646 -95.63365 5172 ft 241 kts 238°
2026-05-06 18:54 41.19952 -95.65321 4992 ft 232 kts 252°
2026-05-06 18:54 41.19368 -95.67298 4855 ft 225 kts 252°
2026-05-06 18:54 41.18797 -95.69200 4735 ft 218 kts 251°
2026-05-06 18:54 41.18243 -95.71058 4652 ft 216 kts 252°
2026-05-06 18:55 41.18017 -95.72967 4586 ft 211 kts 281°
2026-05-06 18:55 41.18447 -95.74864 4602 ft 221 kts 291°
2026-05-06 18:55 41.19002 -95.76801 4610 ft 227 kts 292°
2026-05-06 18:55 41.19783 -95.78627 4599 ft 225 kts 309°
2026-05-06 18:56 41.20969 -95.79919 4476 ft 221 kts 324°
2026-05-06 18:56 41.22258 -95.81071 4319 ft 220 kts 327°
2026-05-06 18:56 41.23676 -95.81663 4210 ft 218 kts 358°
2026-05-06 18:56 41.25104 -95.81080 4114 ft 219 kts 31°
2026-05-06 18:57 41.26053 -95.79510 3946 ft 224 kts 65°
2026-05-06 18:57 41.26212 -95.77442 3658 ft 230 kts 101°
2026-05-06 18:57 41.25492 -95.75548 3358 ft 234 kts 136°
2026-05-06 18:57 41.24133 -95.74471 3168 ft 226 kts 167°
2026-05-06 18:58 41.22584 -95.74164 3050 ft 228 kts 186°
2026-05-06 18:58 41.21021 -95.74270 3018 ft 219 kts 186°
2026-05-06 18:58 41.20032 -95.74395 2979 ft 210 kts 198°
2026-05-06 18:58 41.18192 -95.75049 2977 ft 203 kts 196°
2026-05-06 18:59 41.16801 -95.75211 2968 ft 209 kts 170°
2026-05-06 18:59 41.15472 -95.74451 2988 ft 210 kts 153°
2026-05-06 18:59 41.14181 -95.73489 2987 ft 209 kts 153°
2026-05-06 18:59 41.13012 -95.72458 2955 ft 200 kts 134°
2026-05-06 19:00 41.12416 -95.70881 3002 ft 191 kts 102°
2026-05-06 19:00 41.12138 -95.69146 2979 ft 192 kts 101°
2026-05-06 19:00 41.11498 -95.67630 2978 ft 188 kts 142°
2026-05-06 19:00 41.10751 -95.67109 2973 ft 181 kts 174°
2026-05-06 19:01 41.09391 -95.67837 3022 ft 163 kts 246°
2026-05-06 19:01 41.09331 -95.69228 2994 ft 153 kts 300°
2026-05-06 19:01 41.10167 -95.70056 3025 ft 158 kts 334°
2026-05-06 19:01 41.11112 -95.70829 2996 ft 161 kts 320°
2026-05-06 19:02 41.11999 -95.71683 2958 ft 158 kts 323°
2026-05-06 19:02 41.12888 -95.72503 2951 ft 154 kts 322°
2026-05-06 19:02 41.13752 -95.73319 2976 ft 152 kts 322°
2026-05-06 19:02 41.14626 -95.74150 2983 ft 157 kts 322°
2026-05-06 19:03 41.15518 -95.74997 2965 ft 159 kts 323°
2026-05-06 19:03 41.16420 -95.75854 2976 ft 159 kts 322°
2026-05-06 19:03 41.17326 -95.76716 2970 ft 160 kts 323°
2026-05-06 19:03 41.18229 -95.77574 2975 ft 160 kts 322°
2026-05-06 19:04 41.19109 -95.78407 2968 ft 152 kts 323°
2026-05-06 19:04 41.19946 -95.79203 3002 ft 147 kts 323°
2026-05-06 19:04 41.20775 -95.79992 2977 ft 144 kts 322°
2026-05-06 19:04 41.21590 -95.80768 2892 ft 145 kts 322°
2026-05-06 19:05 41.22421 -95.81558 2682 ft 148 kts 322°
2026-05-06 19:05 41.23245 -95.82340 2485 ft 144 kts 322°
2026-05-06 19:05 41.24047 -95.83101 2297 ft 141 kts 322°
2026-05-06 19:05 41.24863 -95.83858 2157 ft 144 kts 323°
2026-05-06 19:06 41.25690 -95.84640 2001 ft 144 kts 323°
2026-05-06 19:06 41.26487 -95.85391 1846 ft 138 kts 322°
2026-05-06 19:06 41.27267 -95.86166 1619 ft 143 kts 327°
2026-05-06 19:06 41.28081 -95.86910 1414 ft 140 kts 323°
2026-05-06 19:07 41.28845 -95.87652 1194 ft 130 kts 324°
2026-05-06 19:07 41.29315 -95.88107 1049 ft 122 kts 324°
2026-05-06 19:07 41.30134 -95.88878 989 ft 81 kts 324°
2026-05-06 19:07 41.30427 -95.89160 994 ft 38 kts 322°
2026-05-06 19:08 41.30615 -95.89340 995 ft 29 kts 321°
2026-05-06 19:08 41.30776 -95.89496 994 ft 28 kts 324°
2026-05-06 19:08 41.30926 -95.89642 993 ft 26 kts 323°
2026-05-06 19:08 41.30970 -95.89794 989 ft 15 kts 231°
2026-05-06 19:09 41.30878 -95.89771 991 ft 15 kts 146°
2026-05-06 19:09 41.30799 -95.89688 987 ft 14 kts 139°
2026-05-06 19:09 41.30717 -95.89630 993 ft 13 kts 150°
2026-05-06 19:09 41.30630 -95.89600 994 ft 13 kts 176°
2026-05-06 19:10 41.30541 -95.89598 988 ft 13 kts 184°
2026-05-06 19:10 41.30442 -95.89605 985 ft 15 kts 180°
2026-05-06 19:10 41.30339 -95.89607 988 ft 14 kts 182°
2026-05-06 19:10 41.30274 -95.89611 984 ft 14 kts 181°
2026-05-06 19:11 41.30177 -95.89613 986 ft 14 kts 180°
2026-05-06 19:11 41.30076 -95.89612 983 ft 15 kts 179°
2026-05-06 19:11 41.30009 -95.89650 982 ft 10 kts 237°
2026-05-06 19:11 41.29926 -95.89684 988 ft 10 kts 179°
2026-05-06 19:12 41.29860 -95.89680 987 ft 9 kts 181°
2026-05-06 19:12 41.29818 -95.89693 986 ft 9 kts 220°
2026-05-06 19:12 41.29820 -95.89750 988 ft 2 kts 308°
2026-05-06 19:12 41.29826 -95.89761 991 ft 1 kts 306°
2026-05-06 19:13 41.29829 -95.89766 990 ft 0 kts 306°